Location: ???????
(38.3063°N, 23.8625°E)
Time: 03:53:58
(UTC+00:00)

Daily predictions for brighter satellites

Satellite Brightness Start Highest point End
(mag) Time Altitude Azimuth Time Altitude Azimuth Time Altitude Azimuth
Cosmos 2151 3.3 00:08:22 53° ESE 00:08:39 54° E 00:12:46 10° NNE
IDEFIX/ARIANE 42P 4.5 00:04:45 10° NE 00:08:45 22° E 00:11:29 15° SE
Cosmos 1825 4.2 00:13:02 18° WNW 00:13:02 18° WNW 00:14:59 10° NNW
Cosmos 1076 Rocket 3.5 00:12:59 69° WNW 00:12:59 69° WNW 00:17:06 10° N
AQUA 3.9 00:10:46 10° NNE 00:15:32 70° ESE 00:16:24 56° SSE
Cosmos 540 Rocket 4.3 00:15:11 34° W 00:15:59 36° WNW 00:20:42 10° N
DELTA 2 R/B (1) 3.6 00:16:57 32° W 00:19:37 80° N 00:25:12 10° E
NOSS 2-2 (E) 4.0 00:20:42 38° NW 00:20:42 38° NW 00:23:52 10° NNE
Cosmos 841 Rocket 4.3 00:23:03 33° W 00:24:01 37° WNW 00:28:47 10° N
Cosmos 1437 4.4 00:23:07 10° N 00:24:28 26° NNW 00:24:28 26° NNW
Cosmos 2292 Rocket 3.9 00:26:32 36° E 00:26:32 36° E 00:29:01 10° NNE
Cosmos 1242 Rocket 3.6 00:23:39 10° NNW 00:26:09 35° NW 00:26:09 35° NW
IRS-1D 4.1 00:23:49 10° NNE 00:28:47 49° E 00:30:45 32° SSE
Cosmos 2221 3.6 00:25:08 10° NNW 00:28:23 31° WNW 00:28:23 31° WNW
Cosmos 1656 Rocket 3.9 00:24:13 10° NW 00:29:37 46° WSW 00:30:16 44° SW
X-37B 2.8 00:28:47 12° NW 00:31:09 26° N 00:33:53 10° ENE
Cosmos 2026 Rocket 4.0 00:31:26 41° SSW 00:33:45 73° W 00:40:06 10° N
NOSS 2-2 (C) 3.9 00:34:05 36° NW 00:34:08 36° NW 00:37:28 10° NNE
Cosmos 1937 Rocket 4.2 00:32:27 10° NW 00:37:13 34° W 00:37:19 34° WSW
Meteor 2-15 Rocket 4.4 00:31:46 10° N 00:37:55 75° W 00:40:41 34° S
Dummy Sat-01 4.5 00:38:35 74° S 00:38:55 90° NW 00:42:43 10° N
Cosmos 2369 Rocket 3.5 00:35:04 10° NW 00:38:58 23° W 00:38:58 23° W
USA 307 4.1 00:38:07 27° WNW 00:39:33 35° NW 00:43:29 10° NNE
Aureole 3 Rocket 3.6 00:36:37 10° NNW 00:40:47 53° W 00:41:59 43° SW
GPS 2-04 Rocket1 2.8 00:41:36 55° SSE 00:41:36 55° SSE 00:45:05 10° E
Cosmos 1782 4.0 00:39:47 10° N 00:43:34 39° E 00:46:08 18° SE
ATLAS 5 CENTAUR R/B 2.5 00:48:04 28° WNW 00:49:03 32° NW 00:52:54 10° NNE
OAO 1 4.5 00:47:17 34° WSW 00:49:35 62° S 00:55:00 10° ESE
SL-19 R/B 4.4 00:46:25 10° N 00:51:36 58° WNW 00:53:45 35° SW
ADEOS Rocket 3.3 00:45:29 16° SSE 00:51:46 87° WSW 00:58:34 10° NNW
ERBS 2.0 00:51:55 83° SE 00:51:56 83° SE 00:55:10 10° NE
Cosmos 1633 4.2 00:53:22 21° WNW 00:53:22 21° WNW 00:55:45 10° NNW
Helios 1B rocket 3.4 00:49:52 10° N 00:53:32 32° WNW 00:54:08 31° W
UNK 4.3 00:54:25 37° WSW 00:54:55 38° W 00:59:13 10° NNW
Cosmos 2298 Rocket 4.1 00:50:03 10° NNW 00:55:24 78° ENE 01:00:32 11° SSE
USA 308 4.5 00:53:26 19° WNW 00:55:35 28° NNW 00:59:18 10° NNE
Meteor 2-21 4.5 00:52:06 26° S 00:55:45 81° E 01:01:57 10° N
SeaSat 1 3.0 00:54:05 10° NE 00:58:53 49° ESE 01:01:33 25° S
SL-16 R/B 3.1 00:59:52 30° SW 01:02:00 39° W 01:07:45 10° NNW
Cosmos 1833 Rocket 4.3 00:58:38 10° SSE 01:03:14 27° ESE 01:07:56 10° NE
IRIDIUM 104 4.2 01:01:14 10° N 01:06:28 80° W 01:09:40 24° S
Cosmos 2150 Rocket 3.9 01:01:43 10° NNW 01:06:57 88° WSW 01:12:14 10° SSE
Cosmos 2266 Rocket 4.3 01:04:30 15° S 01:09:32 65° E 01:15:31 10° NNE
Cosmos 1933 3.7 01:06:37 10° NNW 01:10:33 48° W 01:11:43 36° SW
DELTA 2 DEB (DPAF) 4.0 01:08:09 24° S 01:10:49 76° WSW 01:15:16 10° NNW
Meteor 1-28 Rocket 3.1 01:10:52 32° S 01:12:32 72° W 01:16:20 10° NNW
CZ-4C R/B 2.1 01:11:22 27° S 01:13:50 62° ESE 01:19:13 10° NE
Cosmos 1125 Rocket 3.5 01:09:47 10° NNW 01:15:05 88° ENE 01:20:22 10° SSE
IRIDIUM 114 4.3 01:10:26 10° N 01:15:35 64° W 01:18:48 23° SSW
BREEZE-M DEB (TANK) 3.9 01:15:11 25° SSW 01:17:16 37° SSE 01:20:12 10° E
Tianhe-1 2.1 01:17:27 31° SSE 01:17:45 31° SSE 01:20:36 10° E
Lacrosse 4 Rocket 1.7 01:14:54 10° NW 01:18:45 42° WSW 01:20:08 30° SSW
Cosmos 1151 Rocket 2.9 01:15:44 10° N 01:20:01 83° W 01:23:06 18° S
BREEZE-M R/B 4.3 01:18:11 11° W 01:21:21 34° N 01:27:16 10° NE
CZ-4B R/B 4.2 01:16:37 10° NNE 01:21:46 53° E 01:26:29 12° S
Resurs 1-4 Rocket 3.9 01:18:24 10° NNW 01:21:58 18° WNW 01:24:23 14° W
ARIANE 5 R/B 3.0 01:17:34 10° NNE 01:22:29 56° E 01:26:54 13° S
Cosmos 1766 Rocket 3.8 01:21:59 28° SSW 01:24:08 56° W 01:28:33 10° N
NOSS 5 (C) 4.5 01:21:36 10° NW 01:24:55 74° WSW 01:29:12 10° SSE
Cosmos 2082 Rocket 4.3 01:22:03 10° SE 01:26:02 20° E 01:30:02 10° NE
Cosmos 1408 Rocket 3.7 01:23:31 17° S 01:26:50 74° E 01:31:18 10° N
IKONOS-2 4.4 01:25:33 14° S 01:29:08 75° WSW 01:33:22 10° NNW
COSMOS 2441 4.4 01:26:45 10° NNE 01:31:37 82° ESE 01:35:33 15° S
ADEOS II 3.2 01:29:21 10° N 01:33:54 30° WNW 01:36:49 18° WSW
Okean 3 Rocket 4.1 01:32:35 24° SW 01:34:49 43° W 01:39:00 10° N
Cosmos 1862 3.2 01:32:29 20° S 01:35:15 84° W 01:39:20 10° N
Cosmos 1655 Rocket 4.0 01:32:13 17° SSW 01:37:04 66° W 01:43:17 10° N
Lacrosse 5 rocket 4.0 01:36:25 10° NNW 01:39:15 21° NE 01:42:08 10° E
CZ-2D R/B 4.2 01:38:21 10° NW 01:40:26 12° WNW 01:42:31 10° W
FALCON 9 DEB 3.2 01:37:30 10° WNW 01:40:47 48° SW 01:44:02 10° SSE
Meteor 2-16 Rocket 4.5 01:37:05 15° SSW 01:42:12 68° W 01:48:19 10° N
ASTEX 1 3.5 01:38:22 14° S 01:42:34 57° W 01:47:25 10° NNW
Alouette 2 Rocket 3.7 01:40:01 10° NNW 01:43:33 47° W 01:48:00 10° S
IDEFIX/ARIANE 42P 3.2 01:43:33 10° N 01:48:27 42° WNW 01:52:17 16° SW
COSMOS 2406 3.5 01:43:43 11° S 01:49:07 67° ESE 01:54:45 10° NNE
OAO 3 Rocket 4.3 01:51:44 16° SSW 01:54:46 30° SSE 01:58:56 10° E
PAYLOAD A 4.4 01:54:02 10° NNE 01:59:05 67° ESE 02:04:18 10° S
Spot 4 Rocket 4.2 01:55:34 10° NNE 02:00:43 78° ESE 02:05:51 10° S
CZ-2D R/B 3.4 01:59:54 10° N 02:04:02 72° WNW 02:08:04 10° SSW
Cosmos 2315 Rocket 4.0 01:59:20 10° N 02:05:33 79° W 02:11:45 10° S
DELTA 2 R/B (1) 3.6 02:00:39 10° W 02:06:13 90° SSE 02:11:48 10° ESE
Cosmos 1656 3.7 02:02:07 10° NNW 02:07:51 84° WSW 02:13:30 10° SSE
X-37B 0.7 02:04:56 10° WNW 02:08:06 79° NNE 02:11:16 10° ESE
BREEZE-M DEB (TANK) 3.8 02:07:33 10° NW 02:09:45 33° NE 02:13:41 10° ESE
SL-08 R/B 3.3 02:05:22 10° S 02:09:57 63° WSW 02:14:39 10° NNW
Cosmos 1805 Rocket 4.0 02:06:09 10° S 02:10:27 63° E 02:14:49 10° NNE
Cosmos 1812 3.5 02:09:23 10° NNW 02:12:48 31° W 02:16:12 10° SSW
USA 281 3.5 02:07:44 10° S 02:13:57 46° WSW 02:20:14 10° NW
Delta 2 Rocket 3.3 02:10:10 10° WSW 02:14:05 53° S 02:17:38 10° E
CZ-2C R/B 2.9 02:12:28 10° NNE 02:16:19 74° E 02:20:03 10° S
CZ-2C R/B 2.4 02:11:50 10° NNE 02:16:47 89° WNW 02:21:33 10° SSW
CZ-2C R/B 2.5 02:16:16 10° SSW 02:18:52 20° SSE 02:21:23 10° ESE
Cosmos 2084 Rocket 3.9 02:15:40 11° SW 02:19:19 43° NW 02:23:07 10° NNE
Cosmos 1697 Rocket 3.4 02:13:43 10° NNW 02:19:20 62° ENE 02:24:55 10° SE
FALCON 9 DEB 3.1 02:16:37 10° NW 02:19:44 72° NE 02:22:50 10° SE
GPS 2-04 Rocket1 3.0 02:16:41 10° W 02:20:27 45° SSW 02:24:04 10° ESE
Cosmos 1271 Rocket 4.3 02:19:03 10° NW 02:21:35 17° W 02:24:07 10° SW
NOSS 3-4 (A) 3.5 02:20:46 10° SSW 02:26:31 76° ESE 02:32:36 10° NE
NOSS 3-4 (C) 3.5 02:20:53 10° SSW 02:26:39 75° ESE 02:32:43 10° NE
Cosmos 1500 Rocket 4.1 02:24:54 10° SSW 02:28:58 39° WNW 02:33:02 10° N
